Weather History for Tahlequah, OK

Change the Weather History Date:

Thursday, February 23, 2012

  Actual Average (KMKO) Record (KMKO)
Temperature  
Mean Temperature 57 °F -  
Max Temperature 68 °F 52 °F 71 °F (2007)
Min Temperature 46 °F 32 °F 21 °F (2013)
Degree Days  
Heating Degree Days 8    
Growing Degree Days 7 (Base 50)    
Moisture  
Dew Point 38 °F    
Average Humidity 50    
Maximum Humidity 66    
Minimum Humidity 39    
Precipitation  
Precipitation 0.00 in - - ()
Sea Level Pressure  
Sea Level Pressure 29.39 in    
Wind  
Wind Speed 8 mph (WSW)    
Max Wind Speed 22 mph    
Max Gust Speed 29 mph    
Visibility 10 miles    
Events      
Averages and records for this station are not official NWS values.
T = Trace of Precipitation, MM = Missing Value Source: NWS Daily Summary

Daily Weather History Graph

Daily Weather History Graph

Search for Another Location

Airport:

Trip Planner

Search our weather history database for the weather conditions in past years. The results will help you decide how hot, cold, wet, or windy it might be!

Date:

Astronomy

Feb. 23, 2012 Rise Set
Actual Time 6:58 AM CST 6:08 PM CST
Civil Twilight 6:32 AM CST 6:34 PM CST
Nautical Twilight 6:02 AM CST 7:04 PM CST
Astronomical Twilight 5:33 AM CST 7:34 PM CST
Moon 7:30 AM CST (2/23) 8:09 PM CST (2/23)
Length of Visible Light 12h 02m
Length of Day
11h 10m
Waxing Crescent, 3% of the Moon is Illuminated
Feb 23
Waxing Crescent
Feb 29
First Quarter
Mar 8
Full
Mar 14
Last Quarter
Mar 22
New

Hourly Weather History & Observations

Time (CST) Temp. Windchill Dew Point Humidity Pressure Visibility Wind Dir Wind Speed Gust Speed Precip Events Conditions
12:15 AM 50.0 °F - 35.6 °F 58% 29.49 in 10.0 mi SE 4.6 mph - N/A   Clear
12:35 AM 48.2 °F - 35.6 °F 62% 29.47 in 10.0 mi SSE 4.6 mph - N/A   Clear
12:55 AM 50.0 °F - 35.6 °F 58% 29.46 in 10.0 mi SE 4.6 mph - N/A   Clear
1:15 AM 48.2 °F - 35.6 °F 62% 29.44 in 10.0 mi Calm Calm - N/A   Clear
1:35 AM 46.4 °F 45.2 °F 35.6 °F 66% 29.43 in 10.0 mi SE 3.5 mph - N/A   Clear
1:55 AM 46.4 °F 44.3 °F 35.6 °F 66% 29.41 in 10.0 mi SE 4.6 mph - N/A   Clear
2:35 AM 46.4 °F 45.2 °F 35.6 °F 66% 29.38 in 10.0 mi ESE 3.5 mph - N/A   Clear
2:55 AM 46.4 °F 44.3 °F 35.6 °F 66% 29.36 in 10.0 mi SE 4.6 mph - N/A   Clear
3:15 AM 46.4 °F 44.3 °F 35.6 °F 66% 29.34 in 10.0 mi ESE 4.6 mph - N/A   Clear
3:35 AM 46.4 °F 44.3 °F 35.6 °F 66% 29.33 in 10.0 mi ESE 4.6 mph - N/A   Clear
3:55 AM 46.4 °F - 35.6 °F 66% 29.32 in 10.0 mi Calm Calm - N/A   Clear
4:15 AM 46.4 °F 44.3 °F 35.6 °F 66% 29.30 in 10.0 mi SE 4.6 mph - N/A   Clear
4:35 AM 50.0 °F - 35.6 °F 58% 29.29 in 10.0 mi South 8.1 mph - N/A   Clear
4:55 AM 53.6 °F - 35.6 °F 51% 29.29 in 10.0 mi South 8.1 mph - N/A   Clear
5:15 AM 53.6 °F - 35.6 °F 51% 29.27 in 10.0 mi SSE 10.4 mph - N/A   Clear
5:35 AM 53.6 °F - 35.6 °F 51% 29.27 in 10.0 mi South 11.5 mph 17.3 mph N/A   Clear
5:55 AM 53.6 °F - 35.6 °F 51% 29.25 in 10.0 mi South 9.2 mph - N/A   Clear
6:15 AM 53.6 °F - 35.6 °F 51% 29.27 in 10.0 mi South 6.9 mph - N/A   Clear
6:35 AM 53.6 °F - 35.6 °F 51% 29.26 in 10.0 mi South 6.9 mph - N/A   Clear
6:55 AM 51.8 °F - 35.6 °F 54% 29.26 in 10.0 mi SSW 6.9 mph - N/A   Clear
7:15 AM 51.8 °F - 35.6 °F 54% 29.28 in 10.0 mi SW 5.8 mph - N/A   Clear
7:35 AM 53.6 °F - 35.6 °F 51% 29.29 in 10.0 mi SW 3.5 mph - N/A   Clear
7:55 AM 55.4 °F - 37.4 °F 51% 29.30 in 10.0 mi Calm Calm - N/A   Clear
8:15 AM 55.4 °F - 37.4 °F 51% 29.30 in 10.0 mi SW 10.4 mph - N/A   Clear
8:35 AM 57.2 °F - 37.4 °F 48% 29.31 in 10.0 mi WSW 8.1 mph - N/A   Clear
8:55 AM 59.0 °F - 37.4 °F 45% 29.30 in 10.0 mi SSW 8.1 mph - N/A   Clear
9:15 AM 60.8 °F - 37.4 °F 42% 29.31 in 10.0 mi SW 6.9 mph - N/A   Clear
9:35 AM 60.8 °F - 37.4 °F 42% 29.32 in 10.0 mi SW 8.1 mph - N/A   Clear
9:55 AM 60.8 °F - 37.4 °F 42% 29.32 in 10.0 mi West 10.4 mph - N/A   Clear
10:15 AM 62.6 °F - 37.4 °F 39% 29.34 in 10.0 mi West 8.1 mph - N/A   Clear
10:35 AM 62.6 °F - 39.2 °F 42% 29.34 in 10.0 mi SW 6.9 mph - N/A   Clear
10:55 AM 62.6 °F - 39.2 °F 42% 29.35 in 10.0 mi WSW 10.4 mph - N/A   Clear
11:15 AM 64.4 °F - 41.0 °F 42% 29.36 in 10.0 mi West 10.4 mph - N/A   Clear
11:35 AM 64.4 °F - 41.0 °F 42% 29.37 in 10.0 mi WNW 11.5 mph - N/A   Clear
11:55 AM 64.4 °F - 41.0 °F 42% 29.39 in 10.0 mi WSW 11.5 mph 16.1 mph N/A   Clear
12:15 PM 64.4 °F - 41.0 °F 42% 29.39 in 10.0 mi West 10.4 mph - N/A   Clear
12:35 PM 66.2 °F - 42.8 °F 43% 29.39 in 10.0 mi West 11.5 mph - N/A   Clear
12:55 PM 68.0 °F - 42.8 °F 40% 29.40 in 10.0 mi WNW 12.7 mph - N/A   Clear
1:15 PM 68.0 °F - 42.8 °F 40% 29.40 in 10.0 mi NW 16.1 mph 25.3 mph N/A   Clear
1:35 PM 68.0 °F - 42.8 °F 40% 29.41 in 10.0 mi WNW 18.4 mph 24.2 mph N/A   Clear
1:55 PM 68.0 °F - 42.8 °F 40% 29.41 in 10.0 mi WNW 13.8 mph 19.6 mph N/A   Clear
2:15 PM 68.0 °F - 42.8 °F 40% 29.42 in 10.0 mi WNW 18.4 mph 23.0 mph N/A   Clear
2:35 PM 68.0 °F - 42.8 °F 40% 29.44 in 10.0 mi WNW 20.7 mph 24.2 mph N/A   Clear
2:55 PM 68.0 °F - 42.8 °F 40% 29.44 in 10.0 mi WNW 17.3 mph 25.3 mph N/A   Clear
3:15 PM 66.2 °F - 42.8 °F 43% 29.46 in 10.0 mi WNW 16.1 mph 25.3 mph N/A   Clear
3:35 PM 66.2 °F - 42.8 °F 43% 29.47 in 10.0 mi NNW 18.4 mph 26.5 mph N/A   Clear
3:55 PM 64.4 °F - 42.8 °F 45% 29.49 in 10.0 mi NW 18.4 mph 27.6 mph N/A   Clear
4:15 PM 64.4 °F - 42.8 °F 45% 29.51 in 10.0 mi NW 17.3 mph 25.3 mph N/A   Clear
4:35 PM 62.6 °F - 41.0 °F 45% 29.52 in 10.0 mi NW 21.9 mph 27.6 mph N/A   Clear
4:55 PM 60.8 °F - 41.0 °F 48% 29.54 in 10.0 mi NW 15.0 mph 28.8 mph N/A   Clear
5:15 PM 60.8 °F - 39.2 °F 45% 29.56 in 10.0 mi NNW 18.4 mph 27.6 mph N/A   Clear
5:35 PM 59.0 °F - 35.6 °F 42% 29.58 in 10.0 mi NNW 18.4 mph 26.5 mph N/A   Clear
5:55 PM 55.4 °F - 37.4 °F 51% 29.61 in 10.0 mi NNW 19.6 mph 25.3 mph N/A   Clear
6:15 PM 53.6 °F - 37.4 °F 54% 29.64 in 10.0 mi NW 11.5 mph 23.0 mph N/A   Clear
6:35 PM 53.6 °F - 37.4 °F 54% 29.65 in 10.0 mi NNW 10.4 mph 19.6 mph N/A   Clear
6:55 PM 51.8 °F - 37.4 °F 58% 29.68 in 10.0 mi NNW 16.1 mph 24.2 mph N/A   Clear
7:15 PM 50.0 °F - 35.6 °F 58% 29.70 in 10.0 mi NNW 19.6 mph 31.1 mph N/A   Clear
7:35 PM 48.2 °F - 33.8 °F 58% 29.71 in 10.0 mi NNW 20.7 mph 31.1 mph N/A   Clear
7:55 PM 48.2 °F - 32.0 °F 54% 29.73 in 10.0 mi NNW 16.1 mph 32.2 mph N/A   Clear
8:15 PM 46.4 °F 39.5 °F 32.0 °F 57% 29.75 in 10.0 mi NNW 17.3 mph 23.0 mph N/A   Clear
8:35 PM 46.4 °F 39.8 °F 32.0 °F 57% 29.76 in 10.0 mi NNW 16.1 mph 25.3 mph N/A   Clear
8:55 PM 46.4 °F 39.2 °F 32.0 °F 57% 29.78 in 10.0 mi NNW 18.4 mph 31.1 mph N/A   Clear
9:15 PM 46.4 °F 38.3 °F 30.2 °F 53% 29.79 in 10.0 mi North 23.0 mph 31.1 mph N/A   Clear
9:35 PM 44.6 °F 36.9 °F 30.2 °F 57% 29.82 in 10.0 mi NNW 18.4 mph 28.8 mph N/A   Clear
9:55 PM 44.6 °F 37.8 °F 32.0 °F 61% 29.84 in 10.0 mi NNW 15.0 mph 29.9 mph N/A   Clear
10:15 PM 44.6 °F 35.1 °F 30.2 °F 57% 29.82 in 10.0 mi North 27.6 mph 36.8 mph N/A   Clear
10:35 PM 42.8 °F 34.5 °F 30.2 °F 61% 29.83 in 10.0 mi NNW 18.4 mph 29.9 mph N/A   Clear
10:55 PM 42.8 °F 34.5 °F 30.2 °F 61% 29.85 in 10.0 mi NNW 18.4 mph 27.6 mph N/A   Clear
11:15 PM 42.8 °F 34.3 °F 30.2 °F 61% 29.88 in 10.0 mi NNW 19.6 mph 31.1 mph N/A   Clear
11:35 PM 42.8 °F 34.3 °F 30.2 °F 61% 29.90 in 10.0 mi NW 19.6 mph 24.2 mph N/A   Clear
11:55 PM 42.8 °F 34.0 °F 30.2 °F 61% 29.90 in 10.0 mi NNW 20.7 mph 26.5 mph N/A   Clear